| time (UTC) | temp C | wind direction | speed KPH | gust KPH | rain 1hr cm | rain 24hr cm | rain mn cm | humidity % | barometer mb |
| 20260507024554 | 12 | 157 | 0.0 | 1.6 | 0.00 | 0.00 | 0.00 | 80 | 1009.6 |
| 20260507023045 | 12 | 0 | 0.0 | 3.2 | 0.00 | 0.00 | 0.00 | 79 | 1009.7 |
| 20260507021545 | 12 | 98 | 0.0 | 1.6 | 0.00 | 0.00 | 0.00 | 78 | 1009.6 |
| 20260507020105 | 12 | 211 | 1.6 | 4.8 | 0.00 | 0.00 | 0.00 | 77 | 1009.7 |
| 20260507014554 | 12 | 163 | 0.0 | 1.6 | 0.00 | 0.00 | 0.00 | 76 | 1009.7 |
| 20260507013048 | 12 | 0 | 0.0 | 3.2 | 0.00 | 0.00 | 0.00 | 75 | 1009.8 |
| 20260507011551 | 13 | 0 | 0.0 | 1.6 | 0.00 | 0.00 | 0.00 | 74 | 1009.9 |
| 20260507010044 | 13 | 250 | 0.0 | 1.6 | 0.00 | 0.00 | 0.00 | 74 | 1009.9 |
| 20260507004550 | 13 | 269 | 1.6 | 4.8 | 0.00 | 0.00 | 0.00 | 73 | 1010.0 |
| 20260507003047 | 13 | 181 | 0.0 | 4.8 | 0.00 | 0.00 | 0.00 | 72 | 1010.1 |
| 20260507001547 | 13 | 236 | 0.0 | 4.8 | 0.00 | 0.00 | 0.00 | 71 | 1010.2 |
| 20260507000045 | 14 | 245 | 1.6 | 4.8 | 0.00 | 0.00 | 0.00 | 71 | 1010.4 |
| 20260506234550 | 14 | 171 | 0.0 | 9.7 | 0.00 | 0.00 | 0.00 | 70 | 1010.3 |
| 20260506233043 | 14 | 200 | 1.6 | 8.0 | 0.00 | 0.00 | 0.00 | 69 | 1010.3 |
| 20260506231551 | 15 | 212 | 1.6 | 14.5 | 0.00 | 0.00 | 0.00 | 68 | 1010.2 |
| 20260506230056 | 15 | 221 | 1.6 | 8.0 | 0.00 | 0.00 | 0.00 | 67 | 1010.1 |
| 20260506224546 | 15 | 200 | 3.2 | 12.9 | 0.00 | 0.00 | 0.00 | 66 | 1010.1 |
| 20260506223051 | 15 | 262 | 3.2 | 17.7 | 0.00 | 0.00 | 0.00 | 65 | 1010.2 |
| 20260506221544 | 16 | 166 | 3.2 | 11.3 | 0.00 | 0.00 | 0.00 | 64 | 1010.1 |
| 20260506220055 | 16 | 127 | 1.6 | 9.7 | 0.00 | 0.00 | 0.00 | 63 | 1010.0 |
| 20260506214549 | 16 | 211 | 3.2 | 11.3 | 0.00 | 0.00 | 0.00 | 61 | 1009.9 |
| 20260506213103 | 16 | 290 | 1.6 | 11.3 | 0.00 | 0.00 | 0.00 | 59 | 1009.7 |
| 20260506211603 | 17 | 223 | 1.6 | 8.0 | 0.00 | 0.00 | 0.00 | 56 | 1009.7 |
| 20260506210045 | 17 | 233 | 1.6 | 11.3 | 0.00 | 0.00 | 0.00 | 52 | 1009.7 |
| 20260506204550 | 17 | 229 | 1.6 | 4.8 | 0.00 | 0.00 | 0.00 | 50 | 1009.4 |
| 20260506203047 | 18 | 255 | 0.0 | 3.2 | 0.00 | 0.00 | 0.00 | 49 | 1009.2 |
| 20260506201559 | 18 | 349 | 1.6 | 4.8 | 0.00 | 0.00 | 0.00 | 47 | 1009.2 |
| 20260506200052 | 19 | 240 | 0.0 | 1.6 | 0.00 | 0.00 | 0.00 | 46 | 1009.0 |
| 20260506194557 | 19 | 0 | 0.0 | 1.6 | 0.00 | 0.00 | 0.00 | 44 | 1009.1 |
| 20260506193054 | 20 | 0 | 0.0 | 1.6 | 0.00 | 0.00 | 0.00 | 42 | 1009.1 |
| 20260506191553 | 21 | 0 | 0.0 | 1.6 | 0.00 | 0.00 | 0.00 | 40 | 1009.1 |
| 20260506190044 | 21 | 0 | 0.0 | 3.2 | 0.00 | 0.00 | 0.00 | 39 | 1009.1 |
| 20260506184542 | 22 | 283 | 0.0 | 4.8 | 0.00 | 0.00 | 0.00 | 37 | 1009.1 |
| 20260506183058 | 22 | 230 | 1.6 | 6.4 | 0.00 | 0.00 | 0.00 | 36 | 1009.2 |
| 20260506181544 | 22 | 241 | 4.8 | 9.7 | 0.00 | 0.00 | 0.00 | 37 | 1009.4 |
| 20260506180049 | 22 | 240 | 4.8 | 9.7 | 0.00 | 0.00 | 0.00 | 36 | 1009.4 |
| 20260506174545 | 23 | 218 | 3.2 | 8.0 | 0.00 | 0.00 | 0.00 | 36 | 1009.6 |
| 20260506173050 | 22 | 217 | 6.4 | 12.9 | 0.00 | 0.00 | 0.00 | 35 | 1009.6 |
| 20260506171542 | 23 | 340 | 1.6 | 12.9 | 0.00 | 0.00 | 0.00 | 37 | 1009.7 |
| 20260506170108 | 23 | 225 | 4.8 | 9.7 | 0.00 | 0.00 | 0.00 | 36 | 1009.7 |
| 20260506164542 | 23 | 262 | 1.6 | 8.0 | 0.00 | 0.00 | 0.00 | 36 | 1009.7 |
| 20260506163054 | 23 | 247 | 1.6 | 14.5 | 0.00 | 0.00 | 0.00 | 36 | 1009.9 |
| 20260506161544 | 24 | 198 | 1.6 | 6.4 | 0.00 | 0.00 | 0.00 | 36 | 1009.8 |
| 20260506160043 | 24 | 203 | 0.0 | 11.3 | 0.00 | 0.00 | 0.00 | 37 | 1009.9 |
| 20260506154544 | 22 | 262 | 1.6 | 12.9 | 0.00 | 0.00 | 0.00 | 37 | 1009.9 |
| 20260506153046 | 23 | 223 | 1.6 | 12.9 | 0.00 | 0.00 | 0.00 | 39 | 1010.1 |
| 20260506151546 | 24 | 94 | 1.6 | 11.3 | 0.00 | 0.00 | 0.00 | 37 | 1010.4 |
| 20260506150044 | 23 | 180 | 1.6 | 8.0 | 0.00 | 0.00 | 0.00 | 41 | 1010.6 |
| 20260506144558 | 23 | 217 | 4.8 | 12.9 | 0.00 | 0.00 | 0.00 | 39 | 1010.9 |
| 20260506143041 | 23 | 255 | 3.2 | 9.7 | 0.00 | 0.00 | 0.00 | 38 | 1011.0 |
| 20260506141540 | 23 | 262 | 3.2 | 9.7 | 0.00 | 0.00 | 0.00 | 39 | 1011.3 |
| 20260506140048 | 23 | 0 | 1.6 | 8.0 | 0.00 | 0.00 | 0.00 | 41 | 1011.5 |
| 20260506134545 | 23 | 217 | 1.6 | 11.3 | 0.00 | 0.00 | 0.00 | 42 | 1011.8 |
| 20260506133045 | 22 | 225 | 1.6 | 11.3 | 0.00 | 0.00 | 0.00 | 40 | 1011.8 |
| 20260506131544 | 22 | 216 | 3.2 | 11.3 | 0.00 | 0.00 | 0.00 | 42 | 1012.0 |
| 20260506130046 | 22 | 236 | 1.6 | 3.2 | 0.00 | 0.00 | 0.00 | 41 | 1012.1 |
| 20260506124543 | 21 | 104 | 1.6 | 9.7 | 0.00 | 0.00 | 0.00 | 42 | 1012.3 |
| 20260506123048 | 23 | 88 | 1.6 | 9.7 | 0.00 | 0.00 | 0.00 | 40 | 1012.7 |
| 20260506121549 | 23 | 109 | 0.0 | 9.7 | 0.00 | 0.00 | 0.00 | 44 | 1012.8 |
| 20260506120045 | 21 | 101 | 1.6 | 9.7 | 0.00 | 0.00 | 0.00 | 44 | 1013.0 |
| 20260506114544 | 22 | 199 | 3.2 | 11.3 | 0.00 | 0.00 | 0.00 | 44 | 1013.1 |
| 20260506113042 | 21 | 90 | 3.2 | 6.4 | 0.00 | 0.00 | 0.00 | 44 | 1013.4 |
| 20260506111548 | 21 | 236 | 3.2 | 8.0 | 0.00 | 0.00 | 0.00 | 47 | 1013.4 |
| 20260506110048 | 22 | 103 | 0.0 | 3.2 | 0.00 | 0.00 | 0.00 | 49 | 1013.5 |
| 20260506104545 | 21 | 210 | 1.6 | 11.3 | 0.00 | 0.00 | 0.00 | 49 | 1013.6 |
| 20260506103051 | 21 | 333 | 1.6 | 4.8 | 0.00 | 0.00 | 0.00 | 49 | 1013.7 |
| 20260506101544 | 20 | 107 | 1.6 | 4.8 | 0.00 | 0.00 | 0.00 | 53 | 1013.7 |
| 20260506100041 | 20 | 94 | 1.6 | 4.8 | 0.00 | 0.00 | 0.00 | 51 | 1013.8 |
| 20260506094550 | 20 | 103 | 1.6 | 6.4 | 0.00 | 0.00 | 0.00 | 54 | 1013.7 |
| 20260506093049 | 18 | 186 | 0.0 | 6.4 | 0.00 | 0.00 | 0.00 | 57 | 1013.7 |
| 20260506091548 | 18 | 25 | 1.6 | 4.8 | 0.00 | 0.00 | 0.00 | 59 | 1013.7 |
| 20260506090049 | 18 | 91 | 1.6 | 9.7 | 0.00 | 0.00 | 0.00 | 58 | 1013.8 |
| 20260506084559 | 18 | 108 | 1.6 | 3.2 | 0.00 | 0.00 | 0.00 | 61 | 1013.8 |
| 20260506083043 | 17 | 264 | 0.0 | 3.2 | 0.00 | 0.00 | 0.00 | 62 | 1013.9 |
| 20260506081542 | 16 | 227 | 1.6 | 4.8 | 0.00 | 0.00 | 0.00 | 64 | 1014.0 |
| 20260506073053 | 15 | 0 | 0.0 | 1.6 | 0.00 | 0.00 | 0.00 | 69 | 1014.1 |
| 20260506071544 | 13 | 0 | 0.0 | 3.2 | 0.00 | 0.00 | 0.00 | 74 | 1014.1 |
| 20260506061554 | 9 | 214 | 0.0 | 3.2 | 0.00 | 0.00 | 0.00 | 86 | 1013.9 |
| 20260506050105 | 8 | 94 | 0.0 | 6.4 | 0.00 | 0.00 | 0.00 | 85 | 1013.6 |
| 20260506044551 | 8 | 228 | 0.0 | 3.2 | 0.00 | 0.00 | 0.00 | 85 | 1013.7 |
| 20260506043044 | 8 | 218 | 1.6 | 6.4 | 0.00 | 0.00 | 0.00 | 85 | 1013.6 |
| 20260506041544 | 8 | 0 | 1.6 | 4.8 | 0.00 | 0.00 | 0.00 | 87 | 1013.7 |
| 20260506034542 | 8 | 222 | 0.0 | 3.2 | 0.00 | 0.00 | 0.00 | 86 | 1013.8 |
| 20260506033048 | 8 | 0 | 0.0 | 1.6 | 0.00 | 0.00 | 0.00 | 86 | 1013.9 |
| 20260506031548 | 8 | 0 | 0.0 | 1.6 | 0.00 | 0.00 | 0.00 | 85 | 1013.9 |
| 20260506030045 | 9 | 184 | 1.6 | 3.2 | 0.00 | 0.00 | 0.00 | 83 | 1014.0 |